Weather History for KJFK - February, 2014

Change the Weather History Date:

Monday, February 24, 2014

  Actual Average Record
Temperature  
Mean Temperature 37 °F 36 °F  
Max Temperature 45 °F 44 °F 60 °F (1984)
Min Temperature 28 °F 30 °F 7 °F (2015)
Degree Days  
Heating Degree Days 28 28  
Month to date heating degree days 783 730  
Since 1 July heating degree days 3549 3400  
Cooling Degree Days 0 0  
Month to date cooling degree days 0 0  
Year to date cooling degree days 0 0  
Moisture  
Dew Point 17 °F    
Average Humidity 55    
Maximum Humidity 85    
Minimum Humidity 25    
Precipitation  
Precipitation 0.02 in 0.10 in 1.42 in (1975)
Month to date precipitation 4.56 2.18  
Year to date precipitation 7.57 5.34  
Snow  
Snow 0.00 in 0.30 in 4.00 in (2005)
Month to date snowfall 20.5 7.3  
Since 1 July snowfall 44.4 18.5  
Snow Depth 0.00 in    
Sea Level Pressure  
Sea Level Pressure 29.93 in    
Wind  
Wind Speed 18 mph (WNW)    
Max Wind Speed 31 mph    
Max Gust Speed 40 mph    
Visibility 10 miles    
Events Rain    
T = Trace of Precipitation, MM = Missing Value Source: NWS Daily Summary

Daily Weather History Graph

Daily Weather History Graph

Search for Another Location

Airport or City:

Trip Planner

Search our weather history database for the weather conditions in past years. The results will help you decide how hot, cold, wet, or windy it might be!

Date:

Astronomy

Feb. 24, 2014 Rise Set
Actual Time 6:36 AM EST 5:40 PM EST
Civil Twilight 6:08 AM EST 6:08 PM EST
Nautical Twilight 5:37 AM EST 6:40 PM EST
Astronomical Twilight 5:05 AM EST 7:11 PM EST
Moon 2:33 AM EST (2/24) 12:38 PM EST (2/24)
Length of Visible Light 11h 59m
Length of Day
11h 04m
Waning Crescent, 28% of the Moon is Illuminated
Feb 24
Waning Crescent
Mar 1
New
Mar 8
First Quarter
Mar 16
Full
Mar 23
Last Quarter

Hourly Weather History & Observations

Time (EST) Temp. Windchill Dew Point Humidity Pressure Visibility Wind Dir Wind Speed Gust Speed Precip Events Conditions
12:45 AM 41.0 °F 33.5 °F 33.8 °F 76% 29.87 in 10.0 mi West 13.8 mph - 0.00 in Rain Light Rain
12:51 AM 41.0 °F 32.8 °F 33.1 °F 73% 29.88 in 10.0 mi West 16.1 mph - 0.00 in Rain Light Rain
1:44 AM 39.2 °F 32.5 °F 33.8 °F 81% 29.86 in 10.0 mi SW 10.4 mph - 0.02 in Rain Light Rain
1:51 AM 39.0 °F 32.3 °F 34.0 °F 82% 29.85 in 10.0 mi SW 10.4 mph - 0.02 in Rain Light Rain
2:51 AM 37.9 °F 30.5 °F 34.0 °F 86% 29.83 in 10.0 mi SW 11.5 mph - 0.00 in   Overcast
3:51 AM 37.9 °F 29.2 °F 34.0 °F 86% 29.83 in 10.0 mi WSW 15.0 mph - N/A   Scattered Clouds
4:51 AM 37.9 °F 30.5 °F 33.1 °F 83% 29.85 in 10.0 mi WSW 11.5 mph - N/A   Mostly Cloudy
5:51 AM 37.9 °F 32.7 °F 28.0 °F 68% 29.85 in 10.0 mi WNW 6.9 mph - N/A   Scattered Clouds
6:51 AM 36.0 °F 27.1 °F 19.0 °F 50% 29.87 in 10.0 mi NNW 13.8 mph - N/A   Scattered Clouds
7:51 AM 36.0 °F 25.3 °F 14.0 °F 41% 29.91 in 10.0 mi NNW 19.6 mph - N/A   Scattered Clouds
8:51 AM 36.0 °F 25.6 °F 14.0 °F 41% 29.91 in 10.0 mi NNW 18.4 mph - N/A   Scattered Clouds
9:51 AM 37.9 °F 30.5 °F 12.9 °F 36% 29.92 in 10.0 mi NW 11.5 mph - N/A   Scattered Clouds
10:51 AM 39.0 °F 29.0 °F 10.0 °F 30% 29.92 in 10.0 mi WNW 20.7 mph 28.8 mph N/A   Scattered Clouds
11:51 AM 39.0 °F 29.0 °F 8.1 °F 28% 29.91 in 10.0 mi WNW 20.7 mph 32.2 mph N/A   Scattered Clouds
12:51 PM 39.0 °F 28.8 °F 6.1 °F 26% 29.89 in 10.0 mi WNW 21.9 mph 32.2 mph N/A   Scattered Clouds
1:51 PM 39.9 °F 30.8 °F 7.0 °F 26% 29.88 in 10.0 mi WNW 18.4 mph 28.8 mph N/A   Scattered Clouds
2:51 PM 39.0 °F 29.3 °F 9.0 °F 29% 29.89 in 10.0 mi West 19.6 mph 31.1 mph N/A   Scattered Clouds
3:51 PM 37.9 °F 27.6 °F 6.1 °F 27% 29.91 in 10.0 mi West 20.7 mph 31.1 mph N/A   Mostly Cloudy
4:51 PM 36.0 °F 24.4 °F 8.1 °F 31% 29.94 in 10.0 mi West 23.0 mph 39.1 mph N/A   Mostly Cloudy
5:51 PM 34.0 °F 22.1 °F 10.9 °F 38% 29.98 in 10.0 mi WNW 21.9 mph 28.8 mph N/A   Scattered Clouds
6:51 PM 33.1 °F 21.5 °F 12.9 °F 43% 30.01 in 10.0 mi WNW 19.6 mph 29.9 mph N/A   Scattered Clouds
7:51 PM 32.0 °F 19.8 °F 12.9 °F 45% 30.04 in 10.0 mi WNW 20.7 mph 26.5 mph N/A   Scattered Clouds
8:51 PM 30.9 °F 18.4 °F 12.9 °F 47% 30.07 in 10.0 mi WNW 20.7 mph 27.6 mph N/A   Scattered Clouds
9:51 PM 30.0 °F 16.0 °F 8.1 °F 40% 30.08 in 10.0 mi WNW 25.3 mph 32.2 mph N/A   Partly Cloudy
10:51 PM 28.0 °F 15.3 °F 6.1 °F 39% 30.09 in 10.0 mi NW 18.4 mph 27.6 mph N/A   Partly Cloudy
11:51 PM 28.0 °F 13.3 °F 3.9 °F 36% 30.11 in 10.0 mi WNW 25.3 mph 33.4 mph N/A   Partly Cloudy